{"data":{"norad_id":65072,"epoch":"2026-05-25T04:40:21.367200Z","epoch_age_seconds":68262,"freshness":"FRESH","line1":"1 65072U 25165S   26145.19469175  .00004408  00000+0  30926-3 0  9997","line2":"2 65072  97.4474 222.2895 0002092 138.0478 222.0910 15.05659072 46300","mean_motion":15.05659072,"eccentricity":0.0002092,"inclination_deg":97.4474,"raan_deg":222.2895,"arg_perigee_deg":138.0478,"mean_anomaly_deg":222.091,"bstar":0.00030926,"rev_number":4630,"period_min":95.639180660414,"perigee_km":548.0340685459,"apogee_km":550.9325848906,"semimajor_km":6927.6203267182,"source":"CELESTRAK","updated_at":"2026-05-25T13:38:20.681381Z"}}